Location: ??????????
(42.1626°N, 44.1160°E)
Time: 12:03:16
(UTC+00:00)

Cosmos 1295 Rocket - Pass Details

Date: 03 March 2021
Orbit: 943 x 994 km, 82.9° (Epoch: 20 April)

Event Time Altitude Azimuth Distance (km) Brightness Sun altitude
Rises 15:49:01 0° 179° (S) 3,678 7.5 -10.6°
Reaches altitude 10° 15:51:32 10° 177° (S) 2,728 6.8 -11.1°
Maximum altitude 15:57:45 71° 94° (E) 1,026 4.4 -12.2°
Drops below altitude 10° 16:03:56 10° 12° (NNE) 2,712 6.7 -13.4°
Sets 16:06:26 0° 10° (N) 3,655 7.4 -13.8°
